|
ATLAS 5 CENTAUR R/B - Orbit
|
Unspecified;
14:53:54
| Home | Info | Passes |
|
View from above orbital plane
|
View from above satellite
|
Ground track
|
The orbit data is extracted from the following two-line orbital elements,
1 30778U 07006G 13143.20815265 .00015701 00000-0 49837-3 0 6837
2 30778 035.6897 105.7301 0021419 259.2963 191.0822 15.31646197344776
| Epoch (UTC): | 23 May 2013 04:59:44 |
| Eccentricity: | 0.0021419 |
| inclination: | 35.6897° |
| perigee height: | 456 km |
| apogee height: | 485 km |
| right ascension of ascending node: | 105.7301° |
| argument of perigee: | 259.2963° |
| revolutions per day: | 15.31646197 |
| mean anomaly at epoch: | 191.0822° |
| orbit number at epoch: | 34477 |
The dashed part of the orbit path shows where the satellite is in the earth's shadow,
|
|